New Deal, TX

12:47 PM CDT on August 25, 2016 (GMT -0500)
Lubbock International

Weather History for KLBB - April, 2013

Change the Weather History Date:

Wednesday, April 10, 2013

  Actual Average Record
Temperature  
Mean Temperature 38 °F 59 °F  
Max Temperature 53 °F 74 °F 93 °F (1934)
Min Temperature 22 °F 44 °F 22 °F (2013)
Degree Days  
Heating Degree Days 27 7  
Month to date heating degree days 104 84  
Since 1 July heating degree days 2990 3238  
Cooling Degree Days 0 1  
Month to date cooling degree days 13 10  
Year to date cooling degree days 15 17  
Moisture  
Dew Point 15 °F    
Average Humidity 54    
Maximum Humidity 84    
Minimum Humidity 24    
Precipitation  
Precipitation 0.04 in 0.04 in 1.02 in (1997)
Month to date precipitation 0.04 0.41  
Year to date precipitation 2.27 2.91  
Snow  
Snow 0.40 in 0.00 in T in (1997)
Month to date snowfall 0.4 0.1  
Since 1 July snowfall 4.1 8.1  
Snow Depth 0.00 in    
Sea Level Pressure  
Sea Level Pressure 29.99 in    
Wind  
Wind Speed 16 mph (North)    
Max Wind Speed 22 mph    
Max Gust Speed 32 mph    
Visibility 7 miles    
Events Fog , Snow    
T = Trace of Precipitation, MM = Missing Value Source: NWS Daily Summary

Daily Weather History Graph

Daily Weather History Graph

Search for Another Location

Airport or City:

Trip Planner

Search our weather history database for the weather conditions in past years. The results will help you decide how hot, cold, wet, or windy it might be!

Date:

Astronomy

Apr. 10, 2013 Rise Set
Actual Time 7:22 AM CDT 8:14 PM CDT
Civil Twilight 6:57 AM CDT 8:40 PM CDT
Nautical Twilight 6:27 AM CDT 9:10 PM CDT
Astronomical Twilight 5:56 AM CDT 9:41 PM CDT
Moon 7:21 AM CDT (4/10) 8:49 PM CDT (4/10)
Length of Visible Light 13h 42m
Length of Day
12h 52m
New Moon, 0% of the Moon is Illuminated
Apr 10
New Moon
Apr 18
First Quarter
Apr 25
Full
May 2
Last Quarter
May 9
New

Hourly Weather History & Observations

Time (CDT) Temp. Windchill Dew Point Humidity Pressure Visibility Wind Dir Wind Speed Gust Speed Precip Events Conditions
12:53 AM 32.0 °F 20.1 °F 14.0 °F 48% 29.83 in 8.0 mi North 19.6 mph 29.9 mph N/A   Overcast
1:53 AM 30.9 °F 18.7 °F 15.1 °F 52% 29.90 in 6.0 mi North 19.6 mph 26.5 mph 0.00 in Snow Light Snow
2:53 AM 30.0 °F 17.9 °F 14.0 °F 51% 29.94 in 6.0 mi North 18.4 mph 27.6 mph 0.00 in Snow Light Snow
3:53 AM 28.9 °F 16.5 °F 12.9 °F 51% 29.92 in 8.0 mi North 18.4 mph 27.6 mph 0.00 in   Overcast
4:53 AM 27.0 °F 12.8 °F 10.9 °F 51% 29.97 in 10.0 mi North 21.9 mph - N/A   Overcast
5:53 AM 26.1 °F 13.1 °F 10.0 °F 51% 30.01 in 10.0 mi North 17.3 mph 28.8 mph N/A   Overcast
6:48 AM 26.6 °F 14.3 °F 10.4 °F 51% 30.03 in 7.0 mi North 16.1 mph 23.0 mph 0.00 in Snow Light Ice Pellets
6:53 AM 25.0 °F 12.2 °F 12.0 °F 58% 30.04 in 4.0 mi North 16.1 mph 24.2 mph 0.00 in Snow Light Ice Pellets
7:20 AM 24.8 °F 12.4 °F 17.6 °F 74% 30.03 in 2.0 mi North 15.0 mph - 0.02 in Snow Light Snow
7:53 AM 23.0 °F 12.4 °F 17.1 °F 78% 30.08 in 1.2 mi North 10.4 mph - 0.03 in Snow Light Snow
8:07 AM 23.0 °F 8.7 °F 17.6 °F 80% 30.07 in 1.2 mi NNW 18.4 mph - 0.00 in Snow Light Snow
8:15 AM 21.2 °F 6.4 °F 17.6 °F 86% 30.06 in 0.5 mi North 18.4 mph 23.0 mph 0.00 in Fog , Snow Snow
8:38 AM 21.2 °F 8.3 °F 19.4 °F 93% 30.04 in 1.0 mi North 13.8 mph - 0.00 in Snow Light Snow
8:45 AM 21.2 °F 5.6 °F 19.4 °F 93% 30.03 in 2.0 mi North 20.7 mph 28.8 mph 0.01 in Snow Light Snow
8:53 AM 21.9 °F 6.9 °F 17.1 °F 82% 30.06 in 2.5 mi North 19.6 mph 28.8 mph 0.01 in Snow Light Snow
9:00 AM 21.2 °F 6.0 °F 17.6 °F 86% 30.02 in 6.0 mi North 19.6 mph 26.5 mph 0.00 in Snow Light Snow
9:53 AM 24.1 °F 10.1 °F 18.0 °F 77% 30.08 in 10.0 mi NNW 18.4 mph - 0.00 in   Overcast
10:53 AM 27.0 °F 12.8 °F 17.1 °F 66% 30.09 in 10.0 mi North 21.9 mph - N/A   Overcast
11:53 AM 33.8 °F 22.2 °F 21.2 °F 60% 30.05 in 10.0 mi NNW 20.7 mph 25.3 mph N/A   Mostly Cloudy
12:53 PM 39.0 °F 29.6 °F 18.0 °F 43% 30.04 in 10.0 mi North 18.4 mph 24.2 mph N/A   Mostly Cloudy
1:53 PM 48.2 °F - 15.8 °F 27% 30.02 in 10.0 mi North 20.7 mph - N/A   Clear
2:53 PM 46.4 °F 40.4 °F 14.0 °F 27% 29.99 in 10.0 mi North 13.8 mph - N/A   Clear
3:53 PM 51.1 °F - 15.1 °F 24% 29.94 in 10.0 mi North 12.7 mph 25.3 mph N/A   Clear
4:53 PM 52.0 °F - 15.1 °F 23% 29.92 in 10.0 mi North 12.7 mph 23.0 mph N/A   Partly Cloudy
5:53 PM 51.1 °F - 15.1 °F 24% 29.92 in 10.0 mi North 9.2 mph - N/A   Partly Cloudy
6:53 PM 51.1 °F - 15.1 °F 24% 29.93 in 10.0 mi NNW 11.5 mph - N/A   Partly Cloudy
7:53 PM 48.0 °F - 16.0 °F 28% 29.94 in 10.0 mi North 6.9 mph - N/A   Scattered Clouds
8:53 PM 43.0 °F 38.8 °F 14.0 °F 31% 29.95 in 10.0 mi North 6.9 mph - N/A   Partly Cloudy
9:53 PM 39.0 °F 33.4 °F 12.9 °F 34% 29.98 in 10.0 mi NNE 8.1 mph - N/A   Partly Cloudy
10:53 PM 37.9 °F 32.1 °F 14.0 °F 38% 29.99 in 10.0 mi NNE 8.1 mph - N/A   Clear
11:53 PM 37.0 °F 28.9 °F 15.1 °F 41% 29.97 in 10.0 mi NNE 12.7 mph - N/A   Clear